Weather History for Lambertville, MI

Change the Weather History Date:

Sunday, February 3, 2013

  Actual Average (KTOL) Record (KTOL)
Temperature  
Mean Temperature 12 °F 26 °F  
Max Temperature 22 °F 33 °F 54 °F (1890)
Min Temperature 1 °F 19 °F -14 °F (1976)
Degree Days  
Heating Degree Days 54 39  
Month to date heating degree days 117  
Since 1 July heating degree days 3666  
Cooling Degree Days 0 0  
Month to date cooling degree days 0  
Year to date cooling degree days 0  
Moisture  
Dew Point 9 °F    
Average Humidity 77    
Maximum Humidity 86    
Minimum Humidity 63    
Precipitation  
Precipitation 0.00 in 0.07 in 0.36 in (1982)
Month to date precipitation 0.20  
Year to date precipitation 2.25  
Snow  
Snow 0.00 in 0.30 in - ()
Month to date snowfall 1.1  
Since 1 July snowfall 22.2  
Snow Depth -    
Sea Level Pressure  
Sea Level Pressure 29.95 in    
Wind  
Wind Speed 4 mph (West)    
Max Wind Speed 14 mph    
Max Gust Speed 22 mph    
Visibility 8 miles    
Events Snow    
T = Trace of Precipitation, MM = Missing Value Source: NWS Daily Summary

Daily Weather History Graph

Daily Weather History Graph

Search for Another Location

Airport:

Trip Planner

Search our weather history database for the weather conditions in past years. The results will help you decide how hot, cold, wet, or windy it might be!

Date:

Astronomy

Feb. 03, 2013 Rise Set
Actual Time 7:44 AM EST 5:53 PM EST
Civil Twilight 7:15 AM EST 6:22 PM EST
Nautical Twilight 6:42 AM EST 6:55 PM EST
Astronomical Twilight 6:09 AM EST 7:28 PM EST
Moon 1:11 AM EST (2/3) 11:29 AM EST (2/3)
Length of Visible Light 11h 07m
Length of Day
10h 08m
Waning Gibbous, 49% of the Moon is Illuminated
Feb 3
Waning Gibbous
Feb 10
New
Feb 17
First Quarter
Feb 25
Full
Mar 4
Last Quarter

Hourly Weather History & Observations

Time (EST) Temp. Windchill Dew Point Humidity Pressure Visibility Wind Dir Wind Speed Gust Speed Precip Events Conditions
12:15 AM 11.1 °F - 7.2 °F 84% 30.00 in 10.0 mi Calm Calm - N/A   Overcast
12:41 AM 7.3 °F 0.5 °F 3.2 °F 83% 30.00 in 10.0 mi West 3.5 mph - N/A   Scattered Clouds
12:56 AM 9.3 °F 2.8 °F 5.7 °F 85% 30.00 in 10.0 mi WNW 3.5 mph - N/A   Clear
1:15 AM 7.9 °F 1.2 °F 4.3 °F 85% 30.00 in 10.0 mi WNW 3.5 mph - N/A   Scattered Clouds
1:35 AM 9.0 °F - 5.0 °F 84% 29.99 in 10.0 mi Calm Calm - N/A   Mostly Cloudy
1:55 AM 6.8 °F -0.1 °F 2.3 °F 82% 29.99 in 10.0 mi West 3.5 mph - N/A   Mostly Cloudy
2:15 AM 6.3 °F - 2.5 °F 84% 29.99 in 10.0 mi Calm Calm - N/A   Mostly Cloudy
2:36 AM 5.9 °F - 2.3 °F 85% 29.98 in 10.0 mi Calm Calm - N/A   Mostly Cloudy
2:55 AM 5.7 °F - 2.5 °F 86% 29.98 in 10.0 mi Calm Calm - N/A   Overcast
3:15 AM 6.1 °F - 2.5 °F 85% 29.97 in 10.0 mi Calm Calm - N/A   Overcast
3:36 AM 6.8 °F - 3.2 °F 85% 29.96 in 10.0 mi Calm Calm - N/A   Overcast
3:55 AM 7.0 °F - 3.4 °F 85% 29.95 in 10.0 mi Calm Calm - N/A   Mostly Cloudy
4:15 AM 7.3 °F - 3.7 °F 85% 29.94 in 10.0 mi Calm Calm - N/A   Mostly Cloudy
4:55 AM 3.0 °F - -0.6 °F 85% 29.94 in 10.0 mi Calm Calm - N/A   Clear
5:15 AM 2.1 °F - -1.7 °F 84% 29.94 in 7.0 mi Calm Calm - N/A   Clear
5:35 AM 1.4 °F - -2.6 °F 83% 29.94 in 10.0 mi Calm Calm - N/A   Scattered Clouds
5:55 AM 1.4 °F - -2.9 °F 82% 29.94 in 10.0 mi Calm Calm - N/A   Mostly Cloudy
6:16 AM 2.1 °F - -2.2 °F 82% 29.93 in 10.0 mi Calm Calm - N/A   Mostly Cloudy
6:35 AM 2.5 °F - -1.8 °F 82% 29.93 in 10.0 mi Calm Calm - N/A   Overcast
6:55 AM 4.1 °F - 0.1 °F 84% 29.93 in 10.0 mi Calm Calm - N/A   Overcast
7:15 AM 6.4 °F - 2.7 °F 84% 29.93 in 10.0 mi Calm Calm - N/A   Overcast
7:35 AM 7.7 °F - 3.9 °F 85% 29.93 in 10.0 mi Calm Calm - N/A   Overcast
7:55 AM 8.4 °F - 4.5 °F 84% 29.93 in 10.0 mi Calm Calm - N/A   Overcast
8:15 AM 8.6 °F - 4.8 °F 85% 29.93 in 10.0 mi Calm Calm - N/A   Overcast
8:35 AM 8.2 °F - 4.1 °F 83% 29.93 in 10.0 mi Calm Calm - N/A   Overcast
8:55 AM 10.0 °F - 6.3 °F 85% 29.93 in 10.0 mi Calm Calm - N/A   Overcast
9:15 AM 11.3 °F - 7.2 °F 83% 29.93 in 4.0 mi Calm Calm - N/A Snow Light Snow
9:35 AM 13.1 °F 7.1 °F 8.4 °F 82% 29.93 in 5.0 mi West 3.5 mph - N/A   Haze
9:55 AM 13.8 °F 6.2 °F 8.4 °F 79% 29.93 in 5.0 mi West 4.6 mph - N/A   Haze
10:15 AM 14.9 °F 6.1 °F 8.4 °F 76% 29.93 in 7.0 mi West 5.8 mph - N/A Snow Light Snow
10:35 AM 15.8 °F 8.6 °F 8.6 °F 73% 29.93 in 10.0 mi West 4.6 mph - N/A   Overcast
10:55 AM 16.7 °F 7.2 °F 9.3 °F 73% 29.93 in 7.0 mi West 6.9 mph - N/A   Overcast
11:15 AM 17.2 °F 6.8 °F 9.5 °F 72% 29.92 in 5.0 mi West 8.1 mph - N/A Snow Light Snow
11:35 AM 18.9 °F 8.0 °F 10.6 °F 70% 29.92 in 5.0 mi West 9.2 mph - N/A   Haze
11:55 AM 19.0 °F 9.0 °F 10.2 °F 69% 29.92 in 7.0 mi West 8.1 mph - N/A   Overcast
12:15 PM 19.9 °F 9.3 °F 10.9 °F 68% 29.91 in 7.0 mi West 9.2 mph - N/A   Overcast
12:35 PM 20.7 °F 11.0 °F 11.1 °F 67% 29.90 in 10.0 mi West 8.1 mph - N/A Snow Light Snow
12:55 PM 20.8 °F 10.4 °F 11.1 °F 66% 29.89 in 10.0 mi West 9.2 mph - N/A   Mostly Cloudy
1:15 PM 22.1 °F 10.6 °F 11.3 °F 63% 29.89 in 10.0 mi West 11.5 mph - N/A   Mostly Cloudy
1:35 PM 21.9 °F 11.0 °F 11.8 °F 65% 29.89 in 10.0 mi WSW 10.4 mph - N/A   Overcast
1:55 PM 21.2 °F 9.5 °F 11.3 °F 66% 29.88 in 10.0 mi WSW 11.5 mph - N/A   Overcast
2:15 PM 21.2 °F 10.1 °F 12.0 °F 68% 29.87 in 10.0 mi WSW 10.4 mph - N/A   Overcast
2:35 PM 21.4 °F 9.1 °F 12.0 °F 67% 29.87 in 10.0 mi WSW 12.7 mph 16.1 mph N/A   Overcast
2:55 PM 21.9 °F 9.8 °F 12.2 °F 66% 29.88 in 7.0 mi WSW 12.7 mph 18.4 mph N/A Snow Light Snow
3:15 PM 21.9 °F 10.4 °F 13.1 °F 69% 29.88 in 7.0 mi SW 11.5 mph 18.4 mph N/A Snow Light Snow
3:35 PM 22.1 °F 10.6 °F 13.1 °F 68% 29.90 in 5.0 mi WSW 11.5 mph 19.6 mph N/A Snow Light Snow
3:55 PM 21.9 °F 9.2 °F 13.6 °F 70% 29.90 in 3.0 mi WSW 13.8 mph 20.7 mph N/A Snow Light Snow
4:15 PM 21.7 °F 11.5 °F 14.5 °F 74% 29.90 in 4.0 mi WSW 9.2 mph 16.1 mph N/A Snow Light Snow
4:35 PM 21.7 °F 10.2 °F 14.5 °F 74% 29.90 in 7.0 mi WSW 11.5 mph 19.6 mph N/A Snow Light Snow
4:55 PM 21.6 °F 9.9 °F 14.4 °F 74% 29.91 in 7.0 mi WSW 11.5 mph 21.9 mph N/A Snow Light Snow
5:15 PM 21.2 °F 8.9 °F 14.0 °F 74% 29.92 in 10.0 mi WSW 12.7 mph 20.7 mph N/A   Overcast
5:35 PM 21.2 °F 10.1 °F 14.0 °F 74% 29.93 in 10.0 mi WSW 10.4 mph 17.3 mph N/A   Overcast
5:55 PM 21.2 °F 9.5 °F 14.0 °F 74% 29.93 in 10.0 mi WSW 11.5 mph 18.4 mph N/A   Overcast
6:15 PM 21.0 °F 9.3 °F 14.9 °F 77% 29.93 in 10.0 mi WSW 11.5 mph 18.4 mph N/A   Overcast
6:35 PM 21.0 °F 8.1 °F 15.4 °F 79% 29.95 in 3.0 mi WSW 13.8 mph 18.4 mph N/A Snow Light Snow
6:55 PM 20.7 °F 10.2 °F 15.8 °F 81% 29.95 in 3.0 mi WSW 9.2 mph 16.1 mph N/A Snow Light Snow
7:15 PM 20.3 °F 9.8 °F 15.8 °F 83% 29.96 in 2.5 mi West 9.2 mph - N/A Snow Light Snow
7:35 PM 19.8 °F 9.1 °F 14.4 °F 80% 29.97 in 10.0 mi West 9.2 mph - N/A   Mostly Cloudy
7:55 PM 20.1 °F 8.8 °F 12.4 °F 72% 29.98 in 10.0 mi West 10.4 mph - N/A   Mostly Cloudy
8:15 PM 20.8 °F 12.1 °F 10.9 °F 66% 29.98 in 10.0 mi WNW 6.9 mph - N/A   Overcast
8:35 PM 21.0 °F 12.4 °F 11.8 °F 68% 29.99 in 10.0 mi West 6.9 mph - N/A   Overcast
8:55 PM 21.0 °F 12.4 °F 12.0 °F 68% 30.00 in 10.0 mi WNW 6.9 mph - N/A   Overcast
9:15 PM 20.7 °F 14.2 °F 13.3 °F 73% 30.00 in 4.0 mi WNW 4.6 mph - N/A Snow Light Snow
9:35 PM 20.7 °F 13.0 °F 12.2 °F 70% 30.01 in 10.0 mi WNW 5.8 mph - N/A Snow Light Snow
9:55 PM 20.7 °F 11.9 °F 11.3 °F 67% 30.01 in 10.0 mi West 6.9 mph - N/A   Overcast
10:15 PM 20.7 °F 14.2 °F 11.7 °F 68% 30.02 in 10.0 mi West 4.6 mph - N/A   Overcast
10:35 PM 20.7 °F 13.0 °F 12.2 °F 70% 30.02 in 10.0 mi West 5.8 mph - N/A Snow Light Snow
10:55 PM 20.5 °F 12.8 °F 13.5 °F 74% 30.02 in 10.0 mi West 5.8 mph - N/A   Overcast
11:15 PM 20.3 °F 13.8 °F 14.0 °F 77% 30.02 in 10.0 mi West 4.6 mph - N/A   Overcast
11:35 PM 20.3 °F 15.4 °F 14.0 °F 77% 30.01 in 7.0 mi WSW 3.5 mph - N/A Snow Light Snow
11:55 PM 20.3 °F 12.5 °F 14.5 °F 78% 30.01 in 4.0 mi SW 5.8 mph - N/A Snow Light Snow